Location: Michelbach Markt
(48.1000°N, 15.7500°E)
Time: 03:42:27
(UTC+01:00)

ISS - Pass Details

Date: 04 December 2021
Orbit: 413 x 422 km, 51.6° (Epoch: 27 January)

Event Time Altitude Azimuth Distance (km) Brightness Sun altitude
Rises 17:47:22 0° 292° (WNW) 2,388 1.0 -16.4°
Reaches altitude 10° 17:49:29 10° 291° (WNW) 1,518 -0.1 -16.8°
Maximum altitude 17:52:53 72° 207° (SSW) 450 -3.6 -17.3°
Enters shadow 17:54:08 35° 131° (SE) 699 -3.0 -17.5°
